Location: ??
(35.5052°N, 139.7262°E)
Time: 02:17:50
(UTC+00:00)

COSMOS 2251 DEB - Pass Details

Date: 04 February 2022
Orbit: 735 x 768 km, 74.0° (Epoch: 25 May)

Event Time Altitude Azimuth Distance (km) Brightness Sun altitude
Rises 08:47:20 0° 347° (NNW) 3,204 ? -7.8°
Reaches altitude 10° 08:49:45 10° 352° (N) 2,281 ? -8.3°
Maximum altitude 08:54:49 55° 70° (ENE) 904 ? -9.3°
Drops below altitude 10° 08:59:55 10° 148° (SSE) 2,288 ? -10.3°
Sets 09:02:20 0° 153° (SSE) 3,215 ? -10.8°
